• Processing (Info)

  • MPEC 2014-N28 : 2014 MK55

    The following Minor Planet Electronic Circular may be linked-to from your own Web pages, but must not otherwise be redistributed electronically.

    A form allowing access to any MPEC is at the bottom of this page.


    Read MPEC 2014-N27 Read MPEC 2014-N29


    M.P.E.C. 2014-N28                                Issued 2014 July 5, 15:00 UT
    
         The Minor Planet Electronic Circulars contain information on unusual
             minor planets and routine data on comets.  They are published
       on behalf of Commission 20 of the International Astronomical Union by the
              Minor Planet Center, Smithsonian Astrophysical Observatory,
                              Cambridge, MA 02138, U.S.A.
    
                 Prepared using the Tamkin Foundation Computer Network
    
                                  MPC@CFA.HARVARD.EDU
                URL https://www.minorplanetcenter.net/    ISSN 1523-6714
    
                                       2014 MK55
    
    Observations:
         K14M55K* C2014 06 29.36438 15 49 01.716-08 55 53.07         21.5 wLEN028F51
         K14M55K  C2014 06 29.37744 15 48 59.819-08 55 48.85         21.5 wLEN028F51
         K14M55K  C2014 06 29.40362 15 48 56.011-08 55 40.02         21.3 wLEN028F51
         K14M55K KC2014 06 30.29969 15 46 54.98 -08 51 02.2          21.0 RoEN028291
         K14M55K KC2014 06 30.30298 15 46 54.52 -08 51 00.6          20.8 RoEN028291
         K14M55K KC2014 06 30.30627 15 46 54.06 -08 51 00.2          20.9 RoEN028291
         K14M55K =C2014 06 30.46697 15 46 32.21 -08 50 05.8          20.9  tEN028568
         K14M55K =C2014 06 30.46822 15 46 32.03 -08 50 05.4          20.9  tEN028568
         K14M55K =C2014 06 30.46948 15 46 31.86 -08 50 05.0          20.7  tEN028568
         K14M55K KC2014 07 03.15465 15 40 45.73 -08 37 55.8          21.3 RqEN028H36
         K14M55K KC2014 07 03.16846 15 40 43.90 -08 37 52.2          20.8 RqEN028H36
         K14M55K KC2014 07 03.18305 15 40 41.96 -08 37 47.8          20.8 RqEN028H36
         K14M55K KC2014 07 05.12818615 36 44.74 -08 30 27.5          20.9 VuEN028H21
         K14M55K KC2014 07 05.14067815 36 43.17 -08 30 24.6          20.9 VuEN028H21
         K14M55K KC2014 07 05.15317315 36 41.57 -08 30 22.3          21.0 VuEN028H21
    
    Observer details:
    291 LPL/Spacewatch II.  Observer R. S. McMillan.  1.8-m f/2.7 reflector + CCD.
    568 Mauna Kea.  Observers R. J. Wainscoat, D. Woodworth.  Measurers P. Veres,
        R. J. Wainscoat.  3.6-m Canada-France-Hawaii Telescope + CCD.
    F51 Pan-STARRS 1, Haleakala.  Observers N. Primak, A. Schultz, T. Goggia,
        M. Willman.  1.8-m Ritchey-Chretien + CCD.
    H21 Astronomical Research Observatory, Westfield.  Observer R. Holmes.
        Measurers T. Vorobjov, L. Buzzi, S. Foglia, T. Linder.  0.81-m f/4.0
        astrograph + CCD.
    H36 Sandlot Observatory, Scranton.  Observer G. Hug.  0.56-m reflector + CCD.
    
    Orbital elements:
    2014 MK55                                           PHA, Earth MOID = 0.0306 AU
    Epoch 2014 May 23.0 TT = JDT 2456800.5                  MPC
    M 277.09420              (2000.0)            P               Q
    n   0.61222207     Peri.  207.94412     +0.98093253     -0.19377337
    a   1.3736098      Node   163.20901     +0.18656039     +0.91729071
    e   0.3740235      Incl.    2.96478     +0.05446641     +0.34789313
    P   1.61           H   21.2           G   0.15           U   8
    Residuals in seconds of arc
    140629 F51  0.2-  0.0     140630 291  0.1-  0.1-    140703 H36  0.0   0.6-
    140629 F51  0.1-  0.1-    140630 568  0.4-  0.3+    140703 H36  0.2+  0.1+
    140629 F51  0.1-  0.0     140630 568  0.5-  0.3+    140705 H21  0.3-  0.2+
    140630 291  0.2-  0.0     140630 568  0.4-  0.3+    140705 H21  0.1-  0.5+
    140630 291  0.1-  0.6+    140703 H36  0.2-  0.8-    140705 H21  0.2-  0.1+
    
    Ephemeris:
    2014 MK55                a,e,i = 1.37, 0.37, 3                   q = 0.8598
    Date    TT    R. A. (2000) Decl.     Delta      r     Elong.  Phase     V
    2014 06 05    16 47 52.1 -12 11 13   0.4198  1.4295   169.7     7.3    20.6
    ...
    2014 06 20    16 11 42.0 -09 58 51   0.3631  1.3482   152.3    20.5    20.7
    ...
    2014 06 28    15 52 10.4 -09 03 21   0.3467  1.3029   140.5    29.8    20.8
    ...
    2014 07 04    15 39 01.2 -08 34 14   0.3391  1.2683   131.8    36.7    20.9
    2014 07 05    15 37 00.3 -08 30 35   0.3381  1.2624   130.4    37.8    20.9
    2014 07 06    15 35 02.7 -08 27 17   0.3372  1.2566   129.0    38.9    20.9
    ...
    2014 07 12    15 24 31.2 -08 14 57   0.3326  1.2214   121.0    45.5    21.0
    ...
    2014 07 20    15 13 51.1 -08 17 56   0.3275  1.1741   111.0    53.9    21.1
    ...
    2014 08 04    15 03 19.1 -09 15 53   0.3140  1.0861    94.6    68.6    21.3
    
    A. U. Tomatic                (C) Copyright 2014 MPC           M.P.E.C. 2014-N28
    

    Read MPEC 2014-N27 Read MPEC 2014-N29


    MPEC number:

    Enter an MPEC number in one of the following forms:

    • 1997-B01 (the full form)
    • J97B01 (the packed version of the full form)
    • B01 (the abbreviated form)